Blue Canyon, CA

9:22 AM PST on December 14, 2017 (GMT -0800)
Blue Canyon-Nyack

Weather History for KBLU - May, 2012

Change the Weather History Date:

Saturday, May 19, 2012

  Actual Average Record
Temperature  
Mean Temperature 61 °F -  
Max Temperature 68 °F 64 °F 81 °F (2008)
Min Temperature 54 °F 45 °F 29 °F (1974)
Degree Days  
Heating Degree Days 4    
Growing Degree Days 11 (Base 50)    
Moisture  
Dew Point 31 °F    
Average Humidity 33    
Maximum Humidity 42    
Minimum Humidity 20    
Precipitation  
Precipitation 0.00 in - - ()
Sea Level Pressure  
Sea Level Pressure 29.92 in    
Wind  
Wind Speed 4 mph (North)    
Max Wind Speed 10 mph    
Max Gust Speed -    
Visibility 10 miles    
Events      
Averages and records for this station are not official NWS values.
T = Trace of Precipitation, MM = Missing Value Source: NWS Daily Summary

Daily Weather History Graph

Daily Weather History Graph

Search for Another Location

Airport or City:

Trip Planner

Search our weather history database for the weather conditions in past years. The results will help you decide how hot, cold, wet, or windy it might be!

Date:

Astronomy

May. 19, 2012 Rise Set
Actual Time 5:45 AM PDT 8:13 PM PDT
Civil Twilight 5:14 AM PDT 8:44 PM PDT
Nautical Twilight 4:37 AM PDT 9:22 PM PDT
Astronomical Twilight 3:54 AM PDT 10:04 PM PDT
Moon 4:51 AM PDT (5/19) 7:23 PM PDT (5/19)
Length of Visible Light 15h 29m
Length of Day
14h 28m
Waning Crescent, 1% of the Moon is Illuminated
May 19
Waning Crescent
May 20
New
May 28
First Quarter
Jun 4
Full
Jun 11
Last Quarter

Hourly Weather History & Observations

Time (PDT) Temp. Dew Point Humidity Pressure Visibility Wind Dir Wind Speed Gust Speed Precip Events Conditions
12:52 AM 55.9 °F 33.1 °F 42% 29.87 in 10.0 mi Variable 3.5 mph - N/A   Clear
1:52 AM 55.9 °F 32.0 °F 40% 29.87 in 10.0 mi NNE 3.5 mph - N/A   Clear
2:52 AM 55.0 °F 30.9 °F 40% 29.88 in 10.0 mi NNE 5.8 mph - N/A   Clear
3:52 AM 55.9 °F 30.0 °F 37% 29.86 in 10.0 mi NNE 3.5 mph - N/A   Clear
4:52 AM 55.0 °F 30.9 °F 40% 29.87 in 10.0 mi NNE 3.5 mph - N/A   Clear
5:52 AM 54.0 °F 30.9 °F 41% 29.87 in 10.0 mi East 4.6 mph - N/A   Clear
6:52 AM 55.0 °F 32.0 °F 42% 29.89 in 10.0 mi SSE 3.5 mph - N/A   Clear
7:52 AM 57.0 °F 32.0 °F 39% 29.91 in 10.0 mi South 3.5 mph - N/A   Clear
8:52 AM 60.1 °F 26.1 °F 27% 29.92 in 10.0 mi Calm Calm - N/A   Clear
9:52 AM 61.0 °F 30.0 °F 31% 29.93 in 10.0 mi Calm Calm - N/A   Clear
10:52 AM 63.0 °F 27.0 °F 26% 29.94 in 10.0 mi Variable 4.6 mph - N/A   Clear
11:52 AM 66.0 °F 23.0 °F 20% 29.93 in 10.0 mi Variable 5.8 mph - N/A   Clear
12:52 PM 66.0 °F 30.9 °F 27% 29.93 in 10.0 mi West 9.2 mph - N/A   Clear
1:52 PM 66.9 °F 30.9 °F 26% 29.92 in 10.0 mi Variable 6.9 mph - N/A   Clear
2:52 PM 66.0 °F 32.0 °F 28% 29.93 in 10.0 mi Variable 6.9 mph - N/A   Clear
3:52 PM 68.0 °F 32.0 °F 26% 29.91 in 10.0 mi West 8.1 mph - N/A   Clear
4:52 PM 66.0 °F 30.0 °F 26% 29.92 in 10.0 mi West 8.1 mph - N/A   Clear
5:52 PM 66.0 °F 30.0 °F 26% 29.94 in 10.0 mi WSW 10.4 mph - N/A   Clear
6:52 PM 64.0 °F 30.9 °F 29% 29.94 in 10.0 mi West 4.6 mph - N/A   Clear
7:52 PM 62.1 °F 32.0 °F 32% 29.94 in 10.0 mi West 3.5 mph - N/A   Clear
8:52 PM 59.0 °F 33.1 °F 38% 29.95 in 10.0 mi Calm Calm - N/A   Clear
9:52 PM 59.0 °F 34.0 °F 39% 29.96 in 10.0 mi NE 3.5 mph - N/A   Clear
10:52 PM 59.0 °F 33.1 °F 38% 29.96 in 10.0 mi NE 3.5 mph - N/A   Clear
11:52 PM 59.0 °F 28.0 °F 31% 29.93 in 10.0 mi NE 3.5 mph - N/A   Clear